Time,TemperatureF,DewpointF,PressureIn,WindDirection,WindDirectionDegrees,WindSpeedMPH,WindSpeedGustMPH,Humidity,HourlyPrecipIn,Conditions,Clouds,dailyrainin,SoftwareType,DateUTC
2013-08-04 00:05:00,82.4,73.3,30.02,ESE,108,1.0,1.0,74,0.00,,,0.00,Wunderground v.1.15,2013-08-04 05:05:00,
2013-08-04 00:15:00,82.1,73.4,30.03,ESE,110,1.0,1.0,75,0.00,,,0.00,Wunderground v.1.15,2013-08-04 05:15:00,
2013-08-04 00:24:00,81.7,73.4,30.03,SE,129,0.0,1.0,76,0.00,,,0.00,Wunderground v.1.15,2013-08-04 05:24:00,
2013-08-04 00:35:00,81.4,73.1,30.03,SE,132,0.0,0.0,76,0.00,,,0.00,Wunderground v.1.15,2013-08-04 05:35:00,
2013-08-04 00:44:00,81.1,73.2,30.03,SE,134,0.0,1.0,77,0.00,,,0.00,Wunderground v.1.15,2013-08-04 05:44:00,
2013-08-04 00:54:00,80.8,73.3,30.03,ESE,123,0.0,1.0,78,0.00,,,0.00,Wunderground v.1.15,2013-08-04 05:54:00,
2013-08-04 01:05:00,80.6,73.5,30.03,ESE,117,0.0,1.0,79,0.00,,,0.00,Wunderground v.1.15,2013-08-04 06:05:00,
2013-08-04 01:15:00,80.4,73.7,30.02,NE,49,1.0,2.0,80,0.00,,,0.00,Wunderground v.1.15,2013-08-04 06:15:00,
2013-08-04 01:20:00,80.2,73.5,30.03,East,82,1.0,1.0,80,0.00,,,0.00,Wunderground v.1.15,2013-08-04 06:20:00,
2013-08-04 01:30:00,80.0,73.6,30.03,ESE,113,1.0,1.0,81,0.00,,,0.00,Wunderground v.1.15,2013-08-04 06:30:00,
2013-08-04 01:40:00,79.8,73.8,30.03,ESE,119,0.0,0.0,82,0.00,,,0.00,Wunderground v.1.15,2013-08-04 06:40:00,
2013-08-04 01:50:00,79.7,74.1,30.03,SE,135,1.0,1.0,83,0.00,,,0.00,Wunderground v.1.15,2013-08-04 06:50:00,
2013-08-04 02:00:00,79.5,73.9,30.03,ESE,108,1.0,1.0,83,0.00,,,0.00,Wunderground v.1.15,2013-08-04 07:00:00,
2013-08-04 02:09:00,79.2,73.9,30.03,ESE,118,0.0,0.0,84,0.00,,,0.00,Wunderground v.1.15,2013-08-04 07:09:00,
2013-08-04 02:20:00,79.1,74.2,30.03,ESE,119,0.0,0.0,85,0.00,,,0.00,Wunderground v.1.15,2013-08-04 07:20:00,
2013-08-04 02:30:00,79.2,74.6,30.03,ESE,120,0.0,0.0,86,0.00,,,0.00,Wunderground v.1.15,2013-08-04 07:30:00,
2013-08-04 02:40:00,79.3,74.7,30.03,ESE,123,1.0,1.0,86,0.00,,,0.00,Wunderground v.1.15,2013-08-04 07:40:00,
2013-08-04 02:50:00,79.5,74.9,30.03,ESE,119,0.0,0.0,86,0.00,,,0.00,Wunderground v.1.15,2013-08-04 07:50:00,
2013-08-04 03:00:00,79.6,75.0,30.03,ESE,112,0.0,3.0,86,0.00,,,0.00,Wunderground v.1.15,2013-08-04 08:00:00,
2013-08-04 03:10:00,79.6,75.0,30.03,NE,51,1.0,1.0,86,0.00,,,0.00,Wunderground v.1.15,2013-08-04 08:10:00,
2013-08-04 03:20:00,79.7,75.5,30.03,SE,125,0.0,1.0,87,0.00,,,0.00,Wunderground v.1.15,2013-08-04 08:20:00,
2013-08-04 03:30:00,79.5,75.3,30.03,ESE,117,0.0,0.0,87,0.00,,,0.00,Wunderground v.1.15,2013-08-04 08:30:00,
2013-08-04 03:40:00,79.4,75.5,30.03,ESE,122,0.0,0.0,88,0.00,,,0.00,Wunderground v.1.15,2013-08-04 08:40:00,
2013-08-04 03:50:00,79.3,75.4,30.03,SE,125,0.0,0.0,88,0.00,,,0.00,Wunderground v.1.15,2013-08-04 08:50:00,
2013-08-04 04:00:00,79.3,75.4,30.02,SE,132,0.0,0.0,88,0.00,,,0.00,Wunderground v.1.15,2013-08-04 09:00:00,
2013-08-04 04:10:00,79.3,75.4,30.02,East,98,0.0,0.0,88,0.00,,,0.00,Wunderground v.1.15,2013-08-04 09:10:00,
2013-08-04 04:20:00,79.1,75.6,30.02,East,98,0.0,0.0,89,0.00,,,0.00,Wunderground v.1.15,2013-08-04 09:20:00,
2013-08-04 04:25:00,79.0,75.5,30.02,East,99,0.0,0.0,89,0.00,,,0.00,Wunderground v.1.15,2013-08-04 09:25:00,
2013-08-04 04:35:00,79.1,75.6,30.02,ESE,115,0.0,1.0,89,0.00,,,0.00,Wunderground v.1.15,2013-08-04 09:35:00,
2013-08-04 04:40:00,79.1,75.6,30.02,ESE,114,0.0,0.0,89,0.00,,,0.00,Wunderground v.1.15,2013-08-04 09:40:00,
2013-08-04 04:50:00,79.0,75.8,30.01,ESE,117,0.0,0.0,90,0.00,,,0.00,Wunderground v.1.15,2013-08-04 09:50:00,
2013-08-04 04:59:00,78.8,75.6,30.01,West,263,0.0,0.0,90,0.00,,,0.00,Wunderground v.1.15,2013-08-04 09:59:00,
2013-08-04 05:05:00,78.7,75.5,30.01,West,259,0.0,0.0,90,0.00,,,0.00,Wunderground v.1.15,2013-08-04 10:05:00,
2013-08-04 05:15:00,78.6,75.4,30.01,SW,225,0.0,1.0,90,0.00,,,0.00,Wunderground v.1.15,2013-08-04 10:15:00,
2013-08-04 05:20:00,78.5,75.7,30.01,ESE,118,0.0,0.0,91,0.00,,,0.00,Wunderground v.1.15,2013-08-04 10:20:00,
2013-08-04 05:30:00,78.3,75.5,30.01,ESE,106,0.0,0.0,91,0.00,,,0.00,Wunderground v.1.15,2013-08-04 10:30:00,
2013-08-04 05:40:00,78.1,75.3,30.01,ESE,105,0.0,0.0,91,0.00,,,0.00,Wunderground v.1.15,2013-08-04 10:40:00,
2013-08-04 05:50:00,77.8,75.3,30.01,ESE,105,0.0,0.0,92,0.00,,,0.00,Wunderground v.1.15,2013-08-04 10:50:00,
2013-08-04 05:59:00,77.6,75.1,30.01,ESE,111,0.0,0.0,92,0.00,,,0.00,Wunderground v.1.15,2013-08-04 10:59:00,
2013-08-04 06:05:00,77.5,75.0,30.01,ESE,112,0.0,0.0,92,0.00,,,0.00,Wunderground v.1.15,2013-08-04 11:05:00,
2013-08-04 06:15:00,77.4,75.2,30.01,ESE,112,0.0,0.0,93,0.00,,,0.00,Wunderground v.1.15,2013-08-04 11:15:00,
2013-08-04 06:20:00,77.3,75.1,30.01,West,262,0.0,0.0,93,0.00,,,0.00,Wunderground v.1.15,2013-08-04 11:20:00,
2013-08-04 06:30:00,77.3,75.1,30.01,SSW,204,0.0,0.0,93,0.00,,,0.00,Wunderground v.1.15,2013-08-04 11:30:00,
2013-08-04 06:40:00,77.4,75.2,30.01,SSW,204,0.0,0.0,93,0.00,,,0.00,Wunderground v.1.15,2013-08-04 11:40:00,
2013-08-04 06:45:00,77.3,75.1,30.02,SSW,203,0.0,0.0,93,0.00,,,0.00,Wunderground v.1.15,2013-08-04 11:45:00,
2013-08-04 06:54:00,77.2,75.3,30.02,SSW,204,0.0,0.0,94,0.00,,,0.00,Wunderground v.1.15,2013-08-04 11:54:00,
2013-08-04 07:05:00,77.1,75.2,30.02,SSW,204,0.0,0.0,94,0.00,,,0.00,Wunderground v.1.15,2013-08-04 12:05:00,
2013-08-04 07:15:00,76.9,75.0,30.02,SSW,204,0.0,0.0,94,0.00,,,0.00,Wunderground v.1.15,2013-08-04 12:15:00,
2013-08-04 07:24:00,76.9,75.0,30.03,SSW,204,0.0,0.0,94,0.00,,,0.00,Wunderground v.1.15,2013-08-04 12:24:00,
2013-08-04 07:30:00,77.0,75.1,30.03,SSW,204,0.0,0.0,94,0.00,,,0.00,Wunderground v.1.15,2013-08-04 12:30:00,
2013-08-04 07:40:00,77.2,75.7,30.03,SSW,203,0.0,0.0,95,0.00,,,0.00,Wunderground v.1.15,2013-08-04 12:40:00,
2013-08-04 07:50:00,77.4,75.9,30.04,ESE,103,0.0,0.0,95,0.00,,,0.00,Wunderground v.1.15,2013-08-04 12:50:00,
2013-08-04 08:00:00,77.9,76.0,30.04,WSW,253,0.0,0.0,94,0.00,,,0.00,Wunderground v.1.15,2013-08-04 13:00:00,
2013-08-04 08:10:00,78.3,76.4,30.04,ESE,113,0.0,0.0,94,0.00,,,0.00,Wunderground v.1.15,2013-08-04 13:10:00,
2013-08-04 08:19:00,78.8,76.3,30.05,WSW,257,0.0,0.0,92,0.00,,,0.00,Wunderground v.1.15,2013-08-04 13:19:00,
2013-08-04 08:30:00,79.4,76.5,30.05,SE,130,1.0,1.0,91,0.00,,,0.00,Wunderground v.1.15,2013-08-04 13:30:00,
2013-08-04 08:40:00,79.9,76.7,30.04,WNW,289,0.0,2.0,90,0.00,,,0.00,Wunderground v.1.15,2013-08-04 13:40:00,
2013-08-04 08:49:00,80.4,76.5,30.04,SSW,197,1.0,1.0,88,0.00,,,0.00,Wunderground v.1.15,2013-08-04 13:49:00,
2013-08-04 08:59:00,80.9,76.7,30.04,ESE,110,1.0,1.0,87,0.00,,,0.00,Wunderground v.1.15,2013-08-04 13:59:00,
2013-08-04 09:10:00,81.3,77.1,30.04,West,269,1.0,1.0,87,0.00,,,0.00,Wunderground v.1.15,2013-08-04 14:10:00,
2013-08-04 09:20:00,81.9,76.6,30.05,WSW,257,0.0,0.0,84,0.00,,,0.00,Wunderground v.1.15,2013-08-04 14:20:00,
2013-08-04 09:30:00,81.9,76.9,30.05,SW,228,1.0,1.0,85,0.00,,,0.00,Wunderground v.1.15,2013-08-04 14:30:00,
2013-08-04 09:35:00,82.3,76.6,30.05,South,188,1.0,1.0,83,0.00,,,0.00,Wunderground v.1.15,2013-08-04 14:35:00,
2013-08-04 09:45:00,82.9,76.5,30.05,SW,219,1.0,1.0,81,0.00,,,0.00,Wunderground v.1.15,2013-08-04 14:45:00,
2013-08-04 09:55:00,83.2,76.4,30.05,WSW,243,1.0,2.0,80,0.00,,,0.00,Wunderground v.1.15,2013-08-04 14:55:00,
2013-08-04 10:05:00,83.1,76.3,30.05,West,281,1.0,1.0,80,0.00,,,0.00,Wunderground v.1.15,2013-08-04 15:05:00,
2013-08-04 10:15:00,83.1,76.3,30.05,SW,217,0.0,1.0,80,0.00,,,0.00,Wunderground v.1.15,2013-08-04 15:15:00,
2013-08-04 10:25:00,83.9,76.7,30.05,SSW,208,1.0,1.0,79,0.00,,,0.00,Wunderground v.1.15,2013-08-04 15:25:00,
2013-08-04 10:30:00,84.7,76.7,30.05,SSW,209,1.0,1.0,77,0.00,,,0.00,Wunderground v.1.15,2013-08-04 15:30:00,
2013-08-04 10:40:00,85.7,76.9,30.05,SE,129,1.0,1.0,75,0.00,,,0.00,Wunderground v.1.15,2013-08-04 15:40:00,
2013-08-04 10:45:00,85.5,77.1,30.05,SSW,212,2.0,2.0,76,0.00,,,0.00,Wunderground v.1.15,2013-08-04 15:45:00,
2013-08-04 10:55:00,85.7,76.9,30.05,South,181,1.0,2.0,75,0.00,,,0.00,Wunderground v.1.15,2013-08-04 15:55:00,
2013-08-04 11:05:00,86.2,76.1,30.05,WSW,248,1.0,1.0,72,0.00,,,0.00,Wunderground v.1.15,2013-08-04 16:05:00,
2013-08-04 11:10:00,86.3,76.2,30.05,ESE,115,1.0,1.0,72,0.00,,,0.00,Wunderground v.1.15,2013-08-04 16:10:00,
2013-08-04 11:20:00,86.4,76.3,30.05,West,266,1.0,1.0,72,0.00,,,0.00,Wunderground v.1.15,2013-08-04 16:20:00,
2013-08-04 11:30:00,88.0,75.2,30.04,WNW,286,1.0,3.0,66,0.00,,,0.00,Wunderground v.1.15,2013-08-04 16:30:00,
2013-08-04 11:35:00,88.2,75.9,30.04,West,264,1.0,3.0,67,0.00,,,0.00,Wunderground v.1.15,2013-08-04 16:35:00,
2013-08-04 11:45:00,88.5,75.7,30.04,SSW,204,1.0,1.0,66,0.00,,,0.00,Wunderground v.1.15,2013-08-04 16:45:00,
2013-08-04 11:50:00,88.7,76.3,30.04,SSE,148,1.0,2.0,67,0.00,,,0.00,Wunderground v.1.15,2013-08-04 16:50:00,
2013-08-04 12:00:00,89.0,74.3,30.04,SE,124,1.0,1.0,62,0.00,,,0.00,Wunderground v.1.15,2013-08-04 17:00:00,
2013-08-04 12:10:00,88.8,75.5,30.04,WSW,250,1.0,1.0,65,0.00,,,0.00,Wunderground v.1.15,2013-08-04 17:10:00,
2013-08-04 12:20:00,88.7,75.4,30.03,East,87,2.0,2.0,65,0.00,,,0.00,Wunderground v.1.15,2013-08-04 17:20:00,
2013-08-04 12:30:00,89.4,75.1,30.03,NW,312,1.0,2.0,63,0.00,,,0.00,Wunderground v.1.15,2013-08-04 17:30:00,
2013-08-04 12:40:00,91.3,75.0,30.03,South,186,2.0,3.0,59,0.00,,,0.00,Wunderground v.1.15,2013-08-04 17:40:00,
2013-08-04 12:50:00,92.9,75.4,30.02,SSW,207,1.0,1.0,57,0.00,,,0.00,Wunderground v.1.15,2013-08-04 17:50:00,
2013-08-04 13:00:00,93.2,75.7,30.02,SE,138,1.0,1.0,57,0.00,,,0.00,Wunderground v.1.15,2013-08-04 18:00:00,
2013-08-04 13:10:00,94.7,75.5,30.01,SSW,206,1.0,3.0,54,0.00,,,0.00,Wunderground v.1.15,2013-08-04 18:10:00,
2013-08-04 13:15:00,94.6,75.4,30.01,SSW,212,1.0,3.0,54,0.00,,,0.00,Wunderground v.1.15,2013-08-04 18:15:00,
2013-08-04 13:25:00,95.0,75.7,30.01,ESE,107,1.0,1.0,54,0.00,,,0.00,Wunderground v.1.15,2013-08-04 18:25:00,
2013-08-04 13:30:00,95.4,76.1,30.01,SE,141,2.0,2.0,54,0.00,,,0.00,Wunderground v.1.15,2013-08-04 18:30:00,
2013-08-04 13:40:00,94.3,74.5,30.00,East,89,1.0,1.0,53,0.00,,,0.00,Wunderground v.1.15,2013-08-04 18:40:00,
2013-08-04 13:50:00,93.9,74.2,30.00,North,359,1.0,1.0,53,0.00,,,0.00,Wunderground v.1.15,2013-08-04 18:50:00,
2013-08-04 14:00:00,94.3,74.0,30.00,SE,141,1.0,1.0,52,0.00,,,0.00,Wunderground v.1.15,2013-08-04 19:00:00,
2013-08-04 14:10:00,95.8,75.9,29.99,NE,54,1.0,1.0,53,0.00,,,0.00,Wunderground v.1.15,2013-08-04 19:10:00,
2013-08-04 14:15:00,96.7,75.6,29.99,North,359,1.0,1.0,51,0.00,,,0.00,Wunderground v.1.15,2013-08-04 19:15:00,
2013-08-04 14:25:00,96.2,74.5,29.99,ESE,120,1.0,1.0,50,0.00,,,0.00,Wunderground v.1.15,2013-08-04 19:25:00,
2013-08-04 14:35:00,96.1,73.8,29.98,East,98,1.0,4.0,49,0.00,,,0.00,Wunderground v.1.15,2013-08-04 19:35:00,
2013-08-04 14:45:00,97.3,74.3,29.97,WNW,300,1.0,1.0,48,0.00,,,0.00,Wunderground v.1.15,2013-08-04 19:45:00,
2013-08-04 14:54:00,97.2,74.2,29.97,NE,44,1.0,1.0,48,0.00,,,0.00,Wunderground v.1.15,2013-08-04 19:54:00,
2013-08-04 15:00:00,97.3,74.3,29.97,SSW,207,1.0,1.0,48,0.00,,,0.00,Wunderground v.1.15,2013-08-04 20:00:00,
2013-08-04 15:09:00,98.5,74.1,29.96,South,183,1.0,2.0,46,0.00,,,0.00,Wunderground v.1.15,2013-08-04 20:09:00,
2013-08-04 15:15:00,98.9,74.5,29.96,ESE,115,1.0,3.0,46,0.00,,,0.00,Wunderground v.1.15,2013-08-04 20:15:00,
2013-08-04 15:25:00,98.7,73.0,29.95,ESE,115,2.0,2.0,44,0.00,,,0.00,Wunderground v.1.15,2013-08-04 20:25:00,
2013-08-04 15:30:00,97.8,72.9,29.95,East,88,2.0,2.0,45,0.00,,,0.00,Wunderground v.1.15,2013-08-04 20:30:00,
2013-08-04 15:40:00,97.7,73.4,29.95,SW,228,1.0,1.0,46,0.00,,,0.00,Wunderground v.1.15,2013-08-04 20:40:00,
2013-08-04 15:49:00,98.6,72.2,29.94,WNW,288,1.0,2.0,43,0.00,,,0.00,Wunderground v.1.15,2013-08-04 20:49:00,
2013-08-04 16:00:00,100.2,73.7,29.94,SW,215,1.0,2.0,43,0.00,,,0.00,Wunderground v.1.15,2013-08-04 21:00:00,
2013-08-04 16:10:00,98.9,72.5,29.94,ENE,77,2.0,2.0,43,0.00,,,0.00,Wunderground v.1.15,2013-08-04 21:10:00,
2013-08-04 16:20:00,99.5,73.7,29.93,ESE,115,1.0,1.0,44,0.00,,,0.00,Wunderground v.1.15,2013-08-04 21:20:00,
2013-08-04 16:29:00,100.0,73.5,29.93,SE,132,1.0,1.0,43,0.00,,,0.00,Wunderground v.1.15,2013-08-04 21:29:00,
2013-08-04 16:39:00,101.2,73.1,29.93,East,92,1.0,1.0,41,0.00,,,0.00,Wunderground v.1.15,2013-08-04 21:39:00,
2013-08-04 16:50:00,100.7,72.7,29.92,East,94,2.0,2.0,41,0.00,,,0.00,Wunderground v.1.15,2013-08-04 21:50:00,
2013-08-04 17:00:00,98.6,72.2,29.92,WSW,257,1.0,1.0,43,0.00,,,0.00,Wunderground v.1.15,2013-08-04 22:00:00,
2013-08-04 17:09:00,99.8,73.3,29.92,ESE,110,1.0,1.0,43,0.00,,,0.00,Wunderground v.1.15,2013-08-04 22:09:00,
2013-08-04 17:20:00,99.6,72.4,29.92,WSW,243,2.0,2.0,42,0.00,,,0.00,Wunderground v.1.15,2013-08-04 22:20:00,
2013-08-04 17:30:00,100.7,72.7,29.92,ESE,115,1.0,2.0,41,0.00,,,0.00,Wunderground v.1.15,2013-08-04 22:30:00,
2013-08-04 17:40:00,99.3,72.2,29.92,South,172,1.0,1.0,42,0.00,,,0.00,Wunderground v.1.15,2013-08-04 22:40:00,
2013-08-04 17:45:00,99.0,72.6,29.91,East,101,1.0,1.0,43,0.00,,,0.00,Wunderground v.1.15,2013-08-04 22:45:00,
2013-08-04 17:55:00,98.8,72.4,29.91,West,260,1.0,1.0,43,0.00,,,0.00,Wunderground v.1.15,2013-08-04 22:55:00,
2013-08-04 18:05:00,98.4,72.1,29.91,ESE,113,1.0,1.0,43,0.00,,,0.00,Wunderground v.1.15,2013-08-04 23:05:00,
2013-08-04 18:09:00,98.0,72.4,29.91,ESE,113,1.0,1.0,44,0.00,,,0.00,Wunderground v.1.15,2013-08-04 23:09:00,
2013-08-04 18:20:00,97.6,71.3,29.91,SSE,150,1.0,2.0,43,0.00,,,0.00,Wunderground v.1.15,2013-08-04 23:20:00,
2013-08-04 18:30:00,97.8,71.5,29.91,SSW,212,1.0,1.0,43,0.00,,,0.00,Wunderground v.1.15,2013-08-04 23:30:00,
2013-08-04 18:40:00,97.2,72.3,29.91,ESE,123,2.0,2.0,45,0.00,,,0.00,Wunderground v.1.15,2013-08-04 23:40:00,
2013-08-04 18:50:00,96.5,71.7,29.90,SE,129,1.0,1.0,45,0.00,,,0.00,Wunderground v.1.15,2013-08-04 23:50:00,
2013-08-04 19:00:00,95.8,72.3,29.90,SE,135,1.0,1.0,47,0.00,,,0.00,Wunderground v.1.15,2013-08-05 00:00:00,
2013-08-04 19:10:00,95.1,72.3,29.91,ESE,120,1.0,1.0,48,0.00,,,0.00,Wunderground v.1.15,2013-08-05 00:10:00,
2013-08-04 19:20:00,94.6,71.9,29.91,ESE,116,0.0,0.0,48,0.00,,,0.00,Wunderground v.1.15,2013-08-05 00:20:00,
2013-08-04 19:30:00,94.1,72.0,29.91,SSE,148,0.0,0.0,49,0.00,,,0.00,Wunderground v.1.15,2013-08-05 00:30:00,
2013-08-04 19:40:00,93.6,72.2,29.91,ESE,115,1.0,1.0,50,0.00,,,0.00,Wunderground v.1.15,2013-08-05 00:40:00,
2013-08-04 19:50:00,93.4,72.6,29.91,ESE,104,1.0,1.0,51,0.00,,,0.00,Wunderground v.1.15,2013-08-05 00:50:00,
2013-08-04 20:00:00,93.1,72.9,29.91,SE,143,2.0,2.0,52,0.00,,,0.00,Wunderground v.1.15,2013-08-05 01:00:00,
2013-08-04 20:09:00,92.7,73.1,29.92,ESE,123,2.0,2.0,53,0.00,,,0.00,Wunderground v.1.15,2013-08-05 01:09:00,
2013-08-04 20:15:00,92.5,72.9,29.92,ESE,117,2.0,4.0,53,0.00,,,0.00,Wunderground v.1.15,2013-08-05 01:15:00,
2013-08-04 20:25:00,92.1,73.1,29.92,SE,127,2.0,2.0,54,0.00,,,0.00,Wunderground v.1.15,2013-08-05 01:25:00,
2013-08-04 20:30:00,91.8,73.3,29.93,South,177,2.0,2.0,55,0.00,,,0.00,Wunderground v.1.15,2013-08-05 01:30:00,
2013-08-04 20:40:00,91.4,73.5,29.93,SE,134,2.0,2.0,56,0.00,,,0.00,Wunderground v.1.15,2013-08-05 01:40:00,
2013-08-04 20:49:00,90.9,73.6,29.93,ESE,114,2.0,2.0,57,0.00,,,0.00,Wunderground v.1.15,2013-08-05 01:49:00,
2013-08-04 20:55:00,90.5,73.2,29.93,NNE,18,2.0,2.0,57,0.00,,,0.00,Wunderground v.1.15,2013-08-05 01:55:00,
2013-08-04 21:04:00,89.9,73.1,29.94,WNW,298,2.0,3.0,58,0.00,,,0.00,Wunderground v.1.15,2013-08-05 02:04:00,
2013-08-04 21:15:00,89.4,73.2,29.94,SE,132,2.0,3.0,59,0.00,,,0.00,Wunderground v.1.15,2013-08-05 02:15:00,
2013-08-04 21:25:00,88.9,73.2,29.94,SW,225,2.0,2.0,60,0.00,,,0.00,Wunderground v.1.15,2013-08-05 02:25:00,
2013-08-04 21:35:00,88.4,73.2,29.95,East,100,2.0,4.0,61,0.00,,,0.00,Wunderground v.1.15,2013-08-05 02:35:00,
2013-08-04 21:45:00,88.0,72.9,29.96,SE,142,2.0,4.0,61,0.00,,,0.00,Wunderground v.1.15,2013-08-05 02:45:00,
2013-08-04 21:55:00,87.5,72.9,29.96,ESE,107,2.0,2.0,62,0.00,,,0.00,Wunderground v.1.15,2013-08-05 02:55:00,
2013-08-04 22:05:00,87.1,73.0,29.97,ESE,105,1.0,2.0,63,0.00,,,0.00,Wunderground v.1.15,2013-08-05 03:05:00,
2013-08-04 22:15:00,86.7,72.6,29.97,ESE,104,1.0,2.0,63,0.00,,,0.00,Wunderground v.1.15,2013-08-05 03:15:00,
2013-08-04 22:25:00,86.3,72.2,29.98,ESE,123,2.0,2.0,63,0.00,,,0.00,Wunderground v.1.15,2013-08-05 03:25:00,
2013-08-04 22:35:00,85.8,72.2,29.99,ESE,103,2.0,4.0,64,0.00,,,0.00,Wunderground v.1.15,2013-08-05 03:35:00,
2013-08-04 22:44:00,85.5,72.4,29.99,NE,49,2.0,2.0,65,0.00,,,0.00,Wunderground v.1.15,2013-08-05 03:44:00,
2013-08-04 22:55:00,85.1,72.0,29.99,ESE,113,1.0,2.0,65,0.00,,,0.00,Wunderground v.1.15,2013-08-05 03:55:00,
2013-08-04 23:05:00,84.7,72.1,30.00,SE,138,1.0,1.0,66,0.00,,,0.00,Wunderground v.1.15,2013-08-05 04:05:00,
2013-08-04 23:09:00,84.5,71.9,30.00,ESE,119,1.0,1.0,66,0.00,,,0.00,Wunderground v.1.15,2013-08-05 04:09:00,
2013-08-04 23:15:00,84.3,72.1,30.00,ENE,77,1.0,1.0,67,0.00,,,0.00,Wunderground v.1.15,2013-08-05 04:15:00,
2013-08-04 23:24:00,83.9,71.8,30.00,ESE,110,1.0,2.0,67,0.00,,,0.00,Wunderground v.1.15,2013-08-05 04:24:00,
2013-08-04 23:30:00,83.7,71.6,30.00,SSE,153,2.0,2.0,67,0.00,,,0.00,Wunderground v.1.15,2013-08-05 04:30:00,
2013-08-04 23:35:00,83.5,71.8,30.00,SE,138,1.0,2.0,68,0.00,,,0.00,Wunderground v.1.15,2013-08-05 04:35:00,
2013-08-04 23:45:00,83.2,71.5,30.00,SSE,155,1.0,1.0,68,0.00,,,0.00,Wunderground v.1.15,2013-08-05 04:45:00,
2013-08-04 23:55:00,82.7,71.5,30.00,SE,139,1.0,1.0,69,0.00,,,0.00,Wunderground v.1.15,2013-08-05 04:55:00,